New Delhi, India

10:51 PM IST on June 27, 2017 (GMT +0530)
Indira Gandhi International

Weather History for VIDP - January, 2013

Change the Weather History Date:

Wednesday, January 23, 2013

  Actual Average Record
Temperature  
Mean Temperature 54 °F -  
Max Temperature 66 °F 71 °F 74 °F (2017)
Min Temperature 41 °F 49 °F 42 °F (2016)
Degree Days  
Heating Degree Days 12    
Growing Degree Days 4 (Base 50)    
Moisture  
Dew Point 45 °F    
Average Humidity 78    
Maximum Humidity 100    
Minimum Humidity 32    
Precipitation  
Precipitation 0.00 in - - ()
Sea Level Pressure  
Sea Level Pressure 30.12 in    
Wind  
Wind Speed 2 mph ()    
Max Wind Speed 9 mph    
Max Gust Speed -    
Visibility 0.9 miles    
Events Fog    
Averages and records for this station are not official NWS values.
T = Trace of Precipitation, MM = Missing Value Source: Averaged Metar Reports

Daily Weather History Graph

Daily Weather History Graph

Search for Another Location

Airport or City:

Trip Planner

Search our weather history database for the weather conditions in past years. The results will help you decide how hot, cold, wet, or windy it might be!

Date:

Astronomy

Jan. 23, 2013 Rise Set
Actual Time 7:13 AM IST 5:53 PM IST
Civil Twilight 6:48 AM IST 6:18 PM IST
Nautical Twilight 6:19 AM IST 6:47 PM IST
Astronomical Twilight 5:51 AM IST 7:15 PM IST
Moon 2:45 PM IST (1/23) 3:58 AM IST (1/23)
Length of Visible Light 11h 30m
Length of Day
10h 39m
Waxing Gibbous, 86% of the Moon is Illuminated
Jan 23
Waxing Gibbous
Jan 27
Full
Feb 3
Last Quarter
Feb 10
New
Feb 18
First Quarter

Hourly Weather History & Observations

Time (IST) Temp. Dew Point Humidity Pressure Visibility Wind Dir Wind Speed Gust Speed Precip Events Conditions
12:30 AM 50.0 °F 50.0 °F 100% 30.12 in 0.2 mi Calm Calm - N/A Fog Fog
1:00 AM 48.2 °F 48.2 °F 100% 30.12 in 0.3 mi Calm Calm - N/A Fog Shallow Fog
1:30 AM 48.2 °F 48.2 °F 100% 30.12 in 0.3 mi Calm Calm - N/A Fog Shallow Fog
2:00 AM 48.2 °F 48.2 °F 100% 30.12 in 0.3 mi Calm Calm - N/A Fog Shallow Fog
2:30 AM 48.2 °F 48.2 °F 100% 30.12 in 0.3 mi Calm Calm - N/A Fog Shallow Fog
3:00 AM 48.2 °F 48.2 °F 100% 30.12 in 0.3 mi Calm Calm - N/A Fog Shallow Fog
3:30 AM 46.4 °F 46.4 °F 100% 30.12 in 0.2 mi Calm Calm - N/A Fog Fog
4:00 AM 46.4 °F 46.4 °F 100% 30.12 in 0.2 mi Calm Calm - N/A Fog Fog
4:30 AM 46.4 °F 46.4 °F 100% 30.09 in 0.2 mi Calm Calm - N/A Fog Fog
5:00 AM 42.8 °F 42.8 °F 100% 30.12 in 0.2 mi Calm Calm - N/A Fog Fog
5:30 AM 41.0 °F 41.0 °F 100% 30.12 in 0.2 mi Calm Calm - N/A Fog Fog
6:00 AM 41.0 °F 41.0 °F 100% 30.12 in 0.2 mi Calm Calm - N/A Fog Fog
6:30 AM 42.8 °F 42.8 °F 100% 30.12 in 0.3 mi Calm Calm - N/A Fog Fog
7:00 AM 44.6 °F 44.6 °F 100% 30.12 in 0.3 mi Calm Calm - N/A Fog Fog
7:30 AM 44.6 °F 44.6 °F 100% 30.15 in 0.4 mi Calm Calm - N/A Fog Shallow Fog
8:00 AM 44.6 °F 44.6 °F 100% 30.15 in 0.4 mi Calm Calm - N/A Fog Shallow Fog
8:30 AM 44.6 °F 44.6 °F 100% 30.15 in 0.4 mi Calm Calm - N/A Fog Shallow Fog
9:00 AM 48.2 °F 48.2 °F 100% 30.15 in 0.5 mi WSW 4.6 mph - N/A Fog Shallow Fog
9:30 AM 50.0 °F 50.0 °F 100% 30.18 in 0.7 mi West 2.3 mph - N/A   Mist
10:00 AM 51.8 °F 51.8 °F 100% 30.18 in 0.8 mi West 4.6 mph - N/A   Mist
10:30 AM 53.6 °F 50.0 °F 88% 30.18 in 0.9 mi West 4.6 mph - N/A   Mist
11:30 AM 59.0 °F 50.0 °F 72% 30.18 in 1.1 mi West 5.8 mph - N/A   Smoke
12:00 PM 60.8 °F 48.2 °F 63% 30.15 in 1.2 mi West 5.8 mph - N/A   Smoke
12:30 PM 62.6 °F 46.4 °F 55% 30.15 in 1.6 mi West 8.1 mph - N/A   Haze
1:00 PM 62.6 °F 46.4 °F 55% 30.12 in 1.7 mi WNW 9.2 mph - N/A   Haze
1:30 PM 66.2 °F 35.6 °F 32% 30.12 in 1.8 mi WNW 4.6 mph - N/A   Haze
2:00 PM 66.2 °F 37.4 °F 35% 30.12 in 1.8 mi NW 6.9 mph - N/A   Haze
2:30 PM 66.2 °F 37.4 °F 35% 30.09 in 1.8 mi NW 6.9 mph - N/A   Haze
3:00 PM 66.2 °F 37.4 °F 35% 30.09 in 1.8 mi NW 6.9 mph - N/A   Haze
4:00 PM 66.2 °F 37.4 °F 35% 30.06 in 2.5 mi NW 6.9 mph - N/A   Haze
4:30 PM 64.4 °F 37.4 °F 37% 30.06 in 2.5 mi NW 5.8 mph - N/A   Haze
5:00 PM 64.4 °F 41.0 °F 42% 30.09 in 2.2 mi NW 4.6 mph - N/A   Haze
5:30 PM 64.4 °F 41.0 °F 42% 30.09 in - NW 4.6 mph - N/A   Haze
6:00 PM 62.6 °F 41.0 °F 45% 30.09 in - WNW 4.6 mph - N/A   Haze
7:00 PM 59.0 °F 44.6 °F 59% 30.09 in 1.6 mi West 4.6 mph - N/A   Smoke
7:30 PM 57.2 °F 44.6 °F 63% 30.09 in 1.3 mi West 4.6 mph - N/A   Smoke
8:00 PM 55.4 °F 46.4 °F 72% 30.12 in 1.2 mi West 4.6 mph - N/A   Smoke
8:30 PM 55.4 °F 46.4 °F 72% 30.12 in 1.1 mi WSW 3.5 mph - N/A   Smoke
9:00 PM 53.6 °F 48.2 °F 82% 30.12 in 1.0 mi West 3.5 mph - N/A   Mist
10:00 PM 53.6 °F 48.2 °F 82% 30.12 in 0.7 mi Calm Calm - N/A   Mist
10:30 PM 53.6 °F 50.0 °F 88% 30.12 in 0.7 mi Calm Calm - N/A   Mist
11:00 PM 53.6 °F 50.0 °F 88% 30.12 in 0.7 mi Calm Calm - N/A   Mist
11:30 PM 51.8 °F 50.0 °F 94% 30.12 in 0.7 mi Calm Calm - N/A   Mist